User: anonymous   Login
Location: Unspecified
(0.0000°N, 0.0000°E)
Time: 22:20:16
(UTC+00:00)
Language:

ASTRA 1KR - Orbit

View from above orbital plane
View from above orbital plane
View from above satellite
View from above satellite

Ground track
Ground track

The orbit data is extracted from the following two-line orbital elements,

1 29055U 06012A   15182.93925762  .00000118  00000-0  00000+0 0  9999
2 29055 000.0146 327.2484 0001657 138.5790 171.1877 01.00274685 33625
Epoch (UTC): 01 July 2015 22:32:31
Eccentricity: 0.0001657
inclination: 0.0146°
perigee height: 35778 km
apogee height: 35792 km
right ascension of ascending node: 327.2484°
argument of perigee: 138.5790°
revolutions per day: 1.00274685
mean anomaly at epoch: 171.1877°
orbit number at epoch: 3362

The dashed part of the orbit path shows where the satellite is in the earth's shadow,  

DLR